ONEWEB-0011 (44062 NORAD) Tracking and Keplerian Element Data

This shows tracking and keplerian element data for the satellite.

Feedback or suggestion? Click here.




ElementValue
Catalog44062
NameONEWEB-0011
Epoch Orbit4368
Epoch Day22.4974956
Epoch Year2020
RAAN3.6825
Inclination87.9223
Eccentricity0.0001808
Argument of Perigee87.3781
Mean Anonmoly272.756
Mean Motion13.21814277
Decay Rate3.9E-07
L11 44062U 19010F 20022.49749560 .00000039 00000-0 62129-4 0 9993
L22 44062 87.9223 3.6825 0001808 87.3781 272.7560 13.21814277 43680

Live tracking and technical data element details for ONEWEB-0011 (NORAD 44062). ONEWEB-0011 can be tracked NOW for your location showing map with azimuth and elevation plus other details from your city location.

Track the satellite on the map from your city or location and see movement details for azimuth, elevation, latitude, longitude, range, height, and movement on the map or in text.







IsCatalogInMostPopularTable: catalog: 44062, numindb: 697
Update: records affected: 1



GetName: 44062 ONEWEB-0011

Hit Count: updated at: Sun, 26 Jan 2020 17:26:37 GMT